Temp
47 47 48 48 48 47 48 47 48 48 49 50 52 53 54 54 54 55 55 56 56 56 55 55 55 55 54 54 54 53 52 52 51 51 50 51 50 51 51 52 53 52
47 48 47 47 47 46 47 47 47 47 48 49 50 50 50 53 54 55 55 55 55 55 55 55 55 55 54 53 53 52 51 51 50 52 51 51 51 51 51 51 52 53
47 47 47 47 47 46 46 47 47 47 48 47 48 49 49 49 52 53 54 55 54 54 55 54 55 54 54 53 53 52 51 51 50 50 50 50 51 52 51 51 50 50
46 47 47 48 47 47 45 46 46 47 47 48 47 47 48 49 50 50 51 50 53 53 53 54 54 54 54 53 53 52 52 51 51 51 51 51 51 52 52 52 51 51
45 46 47 47 47 47 46 45 45 45 46 47 47 47 47 48 49 49 50 50 51 51 52 53 53 53 53 53 53 51 51 51 51 51 50 50 52 52 52 51 50 50
44 46 46 47 47 47 47 46 46 45 45 46 46 46 47 47 48 49 50 50 51 51 52 52 52 53 53 52 52 52 51 51 51 51 50 51 51 52 52 51 51 50
42 44 45 46 47 47 46 46 46 46 46 46 45 45 46 46 47 49 50 50 50 50 52 52 52 52 53 53 52 52 52 52 52 51 51 51 51 50 51 51 51 50
39 40 43 44 45 46 47 46 46 46 46 46 46 46 47 47 47 48 48 49 49 50 51 51 52 52 52 53 52 51 51 51 51 51 51 51 50 50 50 51 51 50
39 39 41 43 44 45 45 46 46 45 45 46 45 45 45 47 47 47 47 48 49 49 50 50 51 51 51 51 51 51 51 50 51 51 50 50 50 50 50 50 49 49
38 38 39 41 42 43 44 45 45 45 45 45 45 45 45 45 46 46 46 47 47 48 48 49 50 50 50 50 51 51 51 51 50 50 50 50 50 50 50 49 49 48
37 37 38 38 40 41 43 44 44 45 45 46 45 44 45 44 44 45 45 45 46 46 47 47 48 48 49 49 50 50 51 51 50 50 50 50 50 51 48 50 49 49
36 36 37 38 39 39 41 41 42 43 44 44 45 45 43 44 44 44 44 45 45 46 46 46 47 47 47 47 48 48 49 49 49 49 49 49 49 50 50 50 49 49
34 35 37 37 38 38 38 39 40 40 42 43 44 44 43 43 42 43 42 44 44 44 45 45 45 45 46 46 46 47 48 48 48 48 49 49 49 49 50 50 49 49
33 34 34 36 36 36 36 36 37 38 39 40 40 42 41 41 41 42 41 42 42 42 43 43 43 43 44 45 45 46 46 46 47 47 47 47 47 48 48 48 48 48
32 32 32 33 33 34 34 35 35 37 37 37 38 39 40 40 40 40 39 39 39 39 39 39 40 41 41 41 43 44 45 45 45 45 44 43 44 44 45 45 46 46
32 31 32 32 33 33 34 34 35 35 36 37 38 38 38 38 39 39 39 38 38 38 38 38 39 40 40 40 41 42 43 43 43 42 42 42 42 42 42 42 43 43
31 31 32 32 33 33 33 33 34 33 34 36 37 38 38 38 38 38 38 38 39 38 38 37 38 39 39 41 42 42 41 40 40 40 40 41 41 41 41 40 41 42
31 31 32 32 32 32 32 33 32 33 34 36 36 36 37 37 37 38 38 37 38 38 38 38 38 38 40 41 42 42 41 39 39 39 40 40 40 40 40 40 40 40
30 31 31 31 31 32 32 32 32 33 34 35 36 36 36 36 37 37 37 37 37 37 37 37 37 39 40 41 41 42 42 40 39 39 39 39 39 40 40 39 39 39
30 30 31 31 30 30 31 31 32 33 34 35 35 35 36 36 36 36 36 36 37 37 37 37 37 38 40 40 40 41 41 41 38 39 39 39 39 39 39 39 39 39
30 30 31 31 30 30 30 30 32 32 33 33 35 35 36 36 36 36 36 35 35 36 36 36 37 38 39 40 40 41 41 41 38 38 38 38 38 38 39 39 39 39
31 31 30 30 30 30 31 32 32 33 32 32 34 35 35 36 35 36 35 35 34 34 35 35 36 38 39 39 40 41 41 38 37 37 37 37 37 38 38 38 38 38
31 31 31 31 30 31 32 32 33 33 34 33 34 34 35 35 35 35 35 36 36 36 36 36 36 38 38 39 39 40 39 36 36 36 36 36 37 37 37 37 37 38
31 31 31 31 32 32 32 33 33 34 34 34 34 34 34 35 35 35 35 35 36 36 36 36 37 37 38 38 39 39 38 36 36 36 35 36 36 36 36 36 36 35
31 31 32 32 32 33 33 34 34 34 34 34 35 35 35 35 35 35 35 35 35 36 35 36 37 36 37 38 38 39 37 36 36 35 35 35 35 35 35 35 35 35
30 31 31 32 33 33 34 34 35 34 34 34 35 35 35 35 35 35 35 35 35 35 35 36 36 36 35 38 38 38 39 37 36 35 34 34 35 34 34 34 34 34
MSLP
1009.18 1009.14 1008.74 1008.62 1008.66 1008.42 1008.14 1007.78 1007.90 1007.90 1007.58 1007.50 1007.46 1007.62 1007.78 1008.38 1008.94 1009.42 1010.10 1010.78 1011.22 1011.66 1012.26 1012.82 1013.30 1013.78 1014.30 1014.78 1015.26 1015.74 1016.14 1016.30 1016.66 1017.10 1017.42 1017.62 1017.94 1018.30 1018.46 1018.70 1018.98 1019.22
1008.86 1008.94 1008.82 1008.66 1008.70 1008.66 1008.38 1008.14 1007.78 1007.86 1007.90 1007.74 1007.90 1008.30 1008.54 1008.66 1008.98 1009.18 1009.98 1010.66 1011.18 1011.50 1011.94 1012.38 1012.62 1013.02 1013.62 1014.22 1014.86 1015.54 1016.14 1016.58 1016.62 1016.82 1017.34 1017.74 1017.90 1018.22 1018.46 1018.70 1018.82 1019.10
1008.78 1008.74 1008.70 1008.58 1008.66 1008.78 1008.78 1008.58 1008.22 1007.90 1007.90 1008.06 1008.10 1008.46 1009.02 1009.42 1009.66 1009.86 1010.02 1010.34 1010.78 1011.22 1011.54 1011.86 1012.30 1012.70 1013.10 1013.50 1014.06 1014.70 1015.26 1015.86 1016.42 1016.82 1017.18 1017.46 1017.78 1018.10 1018.42 1018.86 1019.18 1019.30
1008.86 1008.74 1008.74 1008.66 1008.62 1008.78 1009.06 1008.90 1008.78 1008.70 1008.34 1008.14 1008.46 1008.74 1009.06 1009.54 1009.94 1010.30 1010.54 1010.82 1011.18 1011.50 1011.82 1012.22 1012.58 1013.02 1013.38 1013.82 1014.18 1014.66 1015.02 1015.42 1015.74 1016.38 1016.90 1017.42 1017.78 1017.98 1018.30 1018.62 1018.98 1019.34
1008.94 1008.86 1008.78 1008.86 1008.86 1008.74 1008.90 1009.10 1009.18 1009.02 1009.02 1009.06 1009.02 1009.06 1009.22 1009.62 1009.94 1010.34 1010.66 1010.94 1011.18 1011.50 1011.90 1012.34 1012.82 1013.22 1013.62 1014.06 1014.42 1014.78 1015.18 1015.54 1015.90 1016.30 1016.74 1017.14 1017.46 1017.82 1018.10 1018.58 1018.94 1019.22
1008.98 1008.94 1008.90 1008.98 1009.06 1009.06 1008.78 1008.70 1009.18 1009.38 1009.30 1009.26 1009.42 1009.58 1009.66 1009.82 1010.06 1010.34 1010.66 1010.98 1011.30 1011.70 1012.06 1012.42 1012.78 1013.18 1013.58 1014.02 1014.46 1014.82 1015.18 1015.50 1015.74 1016.06 1016.42 1016.78 1017.14 1017.46 1017.78 1018.14 1018.50 1018.90
1008.90 1008.94 1009.02 1009.06 1009.10 1009.14 1009.14 1008.94 1008.78 1009.02 1009.38 1009.62 1009.78 1009.94 1010.10 1010.30 1010.46 1010.62 1010.78 1011.02 1011.34 1011.70 1012.06 1012.46 1012.86 1013.22 1013.50 1013.82 1014.22 1014.58 1014.90 1015.18 1015.46 1015.70 1015.98 1016.34 1016.66 1016.98 1017.30 1017.66 1017.98 1018.26
1008.66 1008.78 1008.98 1009.14 1009.14 1009.18 1009.14 1009.14 1009.18 1009.10 1009.14 1009.38 1009.70 1010.22 1010.34 1010.58 1010.82 1011.02 1011.14 1011.30 1011.50 1011.74 1012.02 1012.30 1012.66 1012.94 1013.34 1013.66 1013.98 1014.38 1014.66 1014.98 1015.26 1015.54 1015.74 1015.98 1016.30 1016.62 1016.94 1017.18 1017.42 1017.66
1008.58 1008.66 1008.90 1009.10 1009.30 1009.30 1009.30 1009.26 1009.26 1009.30 1009.42 1009.50 1009.70 1010.02 1010.38 1010.62 1010.94 1011.14 1011.34 1011.50 1011.66 1011.82 1012.06 1012.34 1012.50 1012.78 1013.06 1013.34 1013.70 1014.02 1014.30 1014.66 1014.90 1015.18 1015.42 1015.66 1015.90 1016.14 1016.42 1016.78 1017.18 1017.34
1008.58 1008.86 1009.02 1009.26 1009.38 1009.46 1009.50 1009.54 1009.58 1009.54 1009.62 1009.70 1009.90 1010.14 1010.42 1010.70 1010.90 1011.14 1011.42 1011.62 1011.82 1011.98 1012.18 1012.38 1012.66 1012.90 1013.10 1013.22 1013.38 1013.62 1013.94 1014.26 1014.58 1014.82 1015.06 1015.26 1015.46 1015.74 1016.02 1016.38 1016.66 1017.02
1008.34 1008.78 1009.10 1009.34 1009.42 1009.46 1009.50 1009.66 1009.74 1009.90 1010.02 1010.02 1010.18 1010.34 1010.50 1010.78 1011.06 1011.22 1011.42 1011.66 1011.86 1012.06 1012.30 1012.46 1012.58 1012.78 1012.98 1013.22 1013.34 1013.50 1013.66 1013.90 1014.18 1014.46 1014.70 1014.86 1015.02 1015.14 1015.30 1015.58 1015.98 1016.30
1008.46 1008.66 1008.82 1008.98 1009.22 1009.34 1009.46 1009.62 1009.78 1009.98 1010.18 1010.26 1010.34 1010.50 1010.74 1010.90 1011.02 1011.30 1011.42 1011.70 1011.90 1012.06 1012.22 1012.34 1012.50 1012.66 1012.90 1013.14 1013.38 1013.54 1013.70 1013.78 1013.94 1014.14 1014.30 1014.54 1014.78 1015.06 1015.30 1015.38 1015.38 1015.54
1008.62 1008.58 1008.62 1008.70 1008.86 1009.02 1009.26 1009.54 1009.74 1009.94 1010.14 1010.26 1010.34 1010.50 1010.78 1011.02 1011.22 1011.34 1011.50 1011.58 1011.78 1011.98 1012.18 1012.38 1012.58 1012.74 1012.94 1013.14 1013.30 1013.46 1013.58 1013.70 1013.82 1013.94 1014.10 1014.26 1014.38 1014.54 1014.70 1014.94 1015.14 1015.38
1008.34 1008.50 1008.62 1008.62 1008.74 1008.94 1009.14 1009.38 1009.66 1009.90 1010.06 1010.22 1010.38 1010.50 1010.74 1010.98 1011.14 1011.26 1011.42 1011.50 1011.66 1011.86 1012.10 1012.26 1012.42 1012.58 1012.78 1012.94 1013.14 1013.30 1013.46 1013.58 1013.70 1013.78 1013.94 1014.06 1014.18 1014.34 1014.46 1014.58 1014.74 1014.98
1007.82 1008.26 1008.46 1008.58 1008.70 1008.86 1008.98 1009.18 1009.46 1009.74 1010.02 1010.18 1010.30 1010.34 1010.54 1010.74 1010.94 1011.14 1011.34 1011.50 1011.62 1011.74 1011.94 1012.18 1012.34 1012.50 1012.70 1012.86 1013.10 1013.22 1013.34 1013.46 1013.54 1013.66 1013.78 1013.94 1014.06 1014.22 1014.30 1014.38 1014.54 1014.70
1007.78 1008.10 1008.30 1008.50 1008.70 1008.78 1008.90 1009.06 1009.26 1009.54 1009.82 1010.02 1010.10 1010.22 1010.38 1010.58 1010.82 1011.02 1011.14 1011.30 1011.42 1011.66 1011.82 1011.98 1012.14 1012.34 1012.54 1012.78 1012.98 1013.14 1013.30 1013.46 1013.58 1013.66 1013.78 1013.94 1014.06 1014.18 1014.26 1014.34 1014.42 1014.58
1007.82 1008.10 1008.34 1008.46 1008.58 1008.82 1009.10 1009.26 1009.34 1009.50 1009.66 1009.82 1009.98 1010.18 1010.34 1010.54 1010.78 1010.94 1011.06 1011.18 1011.26 1011.46 1011.66 1011.86 1012.02 1012.18 1012.30 1012.54 1012.78 1013.02 1013.30 1013.50 1013.62 1013.70 1013.82 1013.86 1013.94 1013.98 1014.06 1014.22 1014.34 1014.42
1007.50 1007.94 1008.26 1008.46 1008.70 1008.78 1009.02 1009.22 1009.42 1009.58 1009.66 1009.74 1009.90 1010.02 1010.18 1010.42 1010.62 1010.74 1010.90 1011.10 1011.26 1011.38 1011.54 1011.74 1011.94 1012.10 1012.26 1012.46 1012.70 1012.90 1013.14 1013.38 1013.54 1013.66 1013.70 1013.74 1013.78 1013.86 1013.90 1014.06 1014.18 1014.38
1007.10 1007.34 1007.70 1008.18 1008.46 1008.66 1008.82 1008.98 1009.18 1009.38 1009.50 1009.66 1009.74 1009.86 1010.10 1010.18 1010.30 1010.54 1010.70 1010.94 1011.14 1011.30 1011.46 1011.66 1011.82 1011.94 1012.14 1012.30 1012.46 1012.62 1012.86 1013.14 1013.38 1013.50 1013.54 1013.50 1013.58 1013.62 1013.70 1013.82 1013.98 1014.18
1006.62 1006.70 1006.66 1007.10 1008.02 1008.46 1008.62 1008.74 1008.98 1009.10 1009.26 1009.38 1009.58 1009.78 1009.86 1010.06 1010.26 1010.42 1010.66 1010.86 1011.02 1011.18 1011.34 1011.50 1011.58 1011.70 1011.86 1012.02 1012.22 1012.42 1012.62 1012.82 1013.10 1013.26 1013.34 1013.38 1013.38 1013.42 1013.46 1013.54 1013.62 1013.74
1006.54 1006.54 1006.46 1006.54 1006.78 1007.42 1008.10 1008.42 1008.66 1008.94 1009.14 1009.22 1009.34 1009.46 1009.66 1009.82 1010.06 1010.30 1010.50 1010.70 1010.90 1011.06 1011.14 1011.22 1011.30 1011.50 1011.66 1011.82 1011.98 1012.22 1012.42 1012.66 1012.90 1013.06 1013.14 1013.18 1013.22 1013.22 1013.22 1013.26 1013.30 1013.42
1006.70 1006.78 1006.86 1006.90 1006.94 1007.06 1007.10 1007.30 1007.82 1008.34 1008.74 1008.94 1009.06 1009.30 1009.46 1009.62 1009.82 1009.94 1010.10 1010.30 1010.50 1010.66 1010.82 1010.90 1011.02 1011.22 1011.46 1011.74 1011.94 1012.10 1012.30 1012.54 1012.74 1012.78 1012.86 1012.90 1012.90 1012.94 1012.98 1013.02 1013.10 1013.22
1006.82 1006.98 1007.10 1007.22 1007.42 1007.50 1007.54 1007.50 1007.38 1007.42 1007.70 1008.10 1008.34 1008.62 1008.86 1009.06 1009.18 1009.34 1009.54 1009.70 1009.86 1010.10 1010.22 1010.34 1010.54 1010.82 1011.14 1011.46 1011.74 1012.02 1012.26 1012.50 1012.54 1012.54 1012.58 1012.58 1012.54 1012.62 1012.66 1012.74 1012.86 1013.02
1006.74 1006.94 1007.18 1007.42 1007.58 1007.54 1007.58 1007.70 1007.74 1007.78 1007.82 1007.90 1007.94 1007.98 1008.14 1008.30 1008.50 1008.66 1008.82 1009.02 1009.22 1009.50 1009.82 1010.06 1010.18 1010.46 1010.90 1011.26 1011.54 1011.74 1011.94 1012.14 1012.18 1012.14 1012.10 1012.14 1012.18 1012.26 1012.46 1012.58 1012.66 1012.78
1006.46 1006.78 1007.06 1007.22 1007.30 1007.38 1007.50 1007.66 1007.74 1007.86 1008.02 1008.18 1008.30 1008.38 1008.50 1008.70 1008.90 1009.06 1009.22 1009.46 1009.66 1009.86 1010.10 1010.42 1010.54 1010.74 1011.02 1011.26 1011.38 1011.50 1011.66 1011.82 1011.90 1011.94 1011.86 1011.82 1011.98 1012.18 1012.38 1012.46 1012.58 1012.66
1006.10 1006.38 1006.70 1006.82 1006.94 1007.14 1007.30 1007.46 1007.70 1007.94 1008.06 1008.26 1008.42 1008.54 1008.74 1008.94 1009.14 1009.30 1009.42 1009.62 1009.90 1010.10 1010.26 1010.46 1010.66 1010.74 1010.90 1010.98 1011.02 1011.10 1011.18 1011.38 1011.50 1011.62 1011.62 1011.70 1011.90 1012.02 1012.18 1012.34 1012.42 1012.54
Wind_Speed
3 1 5 6 2 2 1 4 3 3 4 4 5 9 11 11 11 13 13 13 14 15 14 14 13 13 12 13 14 13 13 15 14 13 15 16 14 16 17 18 16 15
3 1 3 4 3 2 1 0 2 3 4 4 6 5 4 9 13 15 14 14 14 15 15 16 16 17 16 15 15 14 13 11 15 12 14 16 14 14 14 15 15 12
2 2 2 5 4 2 2 1 1 2 4 4 6 7 7 3 5 5 10 14 16 15 16 16 16 16 17 17 17 17 15 15 14 12 12 14 12 11 11 11 11 11
3 2 2 4 4 3 1 1 2 2 2 4 4 5 7 6 6 5 4 5 7 7 8 9 10 11 12 12 14 13 14 14 14 12 12 10 10 10 10 10 11 10
4 3 2 2 3 4 2 2 2 2 3 3 4 4 6 6 6 6 5 5 6 6 6 7 7 8 8 9 11 11 11 10 10 10 10 11 10 10 9 9 10 12
4 4 2 2 1 1 4 3 2 4 3 3 4 4 4 4 5 6 7 7 6 6 7 8 9 9 10 9 9 9 9 9 9 11 11 12 12 11 9 10 11 12
5 4 3 2 1 2 1 2 2 2 5 6 4 3 4 4 4 5 6 7 7 8 8 8 8 8 9 10 10 10 10 11 11 12 13 12 12 14 13 12 12 13
4 3 2 2 2 2 4 2 0 0 2 4 5 6 5 4 3 3 3 6 7 8 8 9 10 11 10 10 10 11 11 10 11 11 12 13 13 13 13 12 13 15
3 3 3 3 4 3 3 3 3 1 2 3 3 4 4 6 5 5 5 5 6 7 7 8 9 10 10 11 11 11 12 11 11 12 13 13 14 14 14 13 13 14
4 4 5 5 5 5 5 3 3 2 1 2 3 3 4 4 4 5 5 5 5 5 6 7 7 7 8 9 11 12 12 12 12 13 13 14 14 14 14 13 14 13
5 4 6 7 7 5 6 5 4 4 3 4 3 4 4 5 4 4 5 5 5 6 6 6 6 6 7 8 8 9 11 11 12 12 12 13 14 15 15 16 15 15
6 5 6 7 7 7 7 7 6 5 5 5 5 5 4 5 6 5 6 6 5 5 5 5 5 5 5 5 6 6 7 9 9 10 11 11 11 10 10 12 13 15
7 8 8 7 7 7 5 5 6 6 6 6 6 6 6 6 5 6 6 7 7 6 6 5 5 4 5 5 5 6 7 8 9 10 10 10 11 12 13 13 13 12
8 7 7 7 6 5 5 5 5 5 6 6 5 7 7 7 7 8 7 6 6 6 6 6 5 5 6 6 6 6 7 7 8 9 9 10 10 11 11 12 12 12
5 5 4 4 4 4 4 5 6 6 5 5 5 6 6 6 6 6 6 6 5 5 5 5 6 6 5 5 6 6 6 7 8 8 8 8 8 9 9 10 10 10
4 4 4 4 5 6 6 5 5 5 6 6 6 5 5 5 6 5 6 6 5 4 4 4 5 4 5 8 7 6 6 6 6 6 7 7 7 8 8 8 8 8
5 5 5 6 6 6 5 6 6 5 5 6 6 6 6 6 6 6 6 6 6 6 5 5 4 5 8 9 10 10 7 6 6 7 6 7 7 8 9 8 7 8
6 6 7 6 6 7 7 7 6 6 6 6 6 6 6 5 6 7 7 6 6 6 7 6 6 8 11 11 12 12 11 7 6 7 7 8 7 8 8 7 7 7
5 6 7 7 7 7 6 6 6 6 6 7 7 6 5 7 6 6 6 6 7 7 7 7 6 10 13 14 14 14 14 11 7 7 7 8 8 8 8 8 7 8
4 4 5 5 6 7 7 7 7 7 6 6 5 6 7 7 6 7 6 7 7 7 7 6 7 10 13 14 14 14 14 12 7 8 7 7 8 8 8 9 9 10
4 4 5 4 4 3 5 7 8 7 7 6 7 7 8 8 8 7 7 7 7 7 6 7 7 10 12 14 14 14 14 12 7 7 7 7 7 8 8 9 9 10
6 5 5 4 4 3 4 5 5 7 8 7 7 6 6 6 6 7 8 8 7 7 7 7 6 11 13 13 14 15 16 9 7 7 7 8 8 8 7 7 7 8
8 8 6 6 5 5 6 6 5 5 3 3 5 6 6 7 7 6 6 6 6 6 6 6 5 8 12 13 13 14 11 6 7 6 7 8 8 8 8 7 7 7
9 9 8 8 7 8 8 6 4 3 4 2 3 3 3 3 2 2 2 2 3 4 4 5 7 7 9 11 13 14 11 7 7 7 8 8 8 8 6 6 7 11
9 9 9 9 9 8 8 8 7 6 4 4 4 4 4 3 3 4 4 4 5 6 8 9 8 8 11 13 14 15 11 7 7 6 8 8 7 6 5 6 6 8
9 10 9 10 9 8 8 7 6 6 7 7 6 5 6 5 6 6 7 7 6 7 7 8 9 8 8 13 14 14 14 9 6 7 8 6 5 6 6 5 6 6
Wind_Direction
207 196 282 298 321 324 322 326 0 15 22 27 103 140 142 137 145 147 154 160 167 167 168 169 170 170 169 172 180 182 187 188 185 183 188 190 192 187 191 192 189 186
267 213 275 296 321 359 349 302 344 68 37 74 69 57 83 144 158 157 160 166 170 173 173 175 178 175 173 175 179 183 188 188 193 186 186 194 197 194 198 195 197 196
285 310 310 301 313 353 5 351 17 26 71 66 75 85 77 83 139 152 164 171 175 178 179 179 180 180 178 180 180 184 185 188 192 189 191 197 196 194 197 196 204 198
263 241 259 288 296 311 72 43 51 61 60 72 73 84 95 104 102 90 113 147 163 166 172 176 179 182 184 183 183 186 189 190 192 182 188 191 200 199 197 193 199 204
230 246 244 280 310 319 359 87 67 57 65 74 87 98 107 103 119 122 112 110 125 126 144 163 172 181 183 185 187 190 189 190 184 183 185 192 197 198 197 190 197 205
225 225 225 217 217 318 319 337 106 105 82 87 104 95 108 126 134 146 143 139 143 141 153 168 175 181 181 182 183 190 188 188 186 185 189 192 194 197 197 195 195 203
206 200 204 196 191 208 251 303 347 92 113 119 111 101 105 128 145 157 160 153 153 159 162 168 173 182 186 185 188 191 194 196 192 192 193 196 195 198 199 199 200 202
198 182 181 193 200 193 224 232 208 345 100 102 113 125 132 133 138 141 151 157 158 166 171 175 180 183 185 188 190 191 195 195 198 197 199 199 198 203 202 204 203 203
165 175 171 194 199 202 197 215 232 188 121 130 133 133 132 144 151 154 165 166 172 174 176 179 184 185 184 187 191 193 196 196 198 199 200 201 203 203 201 201 204 207
188 166 171 183 198 202 199 191 192 213 166 152 152 139 148 148 150 155 156 167 176 184 186 186 188 190 189 193 194 194 197 199 199 203 203 204 206 203 202 201 205 209
212 184 180 185 191 193 199 189 187 177 181 192 167 163 164 154 155 155 161 169 180 181 180 187 192 190 193 197 201 201 202 203 203 205 207 210 210 208 203 201 202 206
205 199 201 199 195 192 192 188 186 183 177 187 184 179 169 170 164 169 170 176 182 188 188 195 193 191 193 194 197 204 208 208 207 206 207 207 211 218 220 217 210 206
195 201 202 204 203 202 186 175 181 186 182 186 186 180 173 174 173 168 180 176 184 183 187 187 186 184 193 198 200 204 210 211 212 213 212 212 213 211 211 213 214 213
198 194 195 200 200 198 189 183 177 180 193 188 175 179 172 176 177 177 181 182 180 180 184 182 188 192 198 203 204 206 210 216 217 219 218 218 217 215 215 216 215 213
198 190 184 182 184 188 196 195 188 186 186 184 182 182 180 180 178 175 167 176 170 172 179 175 186 196 193 199 205 216 219 220 223 223 221 222 222 222 221 220 218 215
187 177 177 174 175 186 199 201 197 190 182 185 190 186 180 177 178 183 179 176 174 176 172 178 193 195 195 200 203 210 218 226 230 232 228 227 225 226 226 222 220 216
170 179 171 181 188 185 186 189 197 191 189 191 192 188 182 180 177 178 186 183 182 181 186 192 195 197 204 207 214 216 216 220 224 230 229 229 228 227 227 219 220 217
183 171 175 183 177 188 186 187 182 184 191 193 191 191 190 176 184 186 181 181 181 185 192 194 200 203 207 213 214 216 216 218 221 225 224 227 226 227 228 222 217 216
188 187 186 177 180 177 182 178 182 187 190 189 195 187 174 187 195 185 189 184 185 189 196 195 203 205 209 214 218 216 218 216 223 224 225 228 223 222 221 218 213 210
199 208 222 208 171 169 171 176 179 193 193 191 181 178 188 191 187 191 188 189 193 194 196 200 210 207 210 213 217 219 221 219 221 223 230 231 228 222 221 219 212 210
202 215 232 253 257 200 176 178 180 180 185 187 184 185 186 190 186 189 193 189 189 191 194 206 212 207 218 220 221 222 224 224 222 222 227 229 230 227 222 220 217 214
188 202 216 233 240 265 271 245 206 188 183 180 180 183 184 184 190 187 192 192 188 186 194 214 210 200 208 216 221 223 223 220 219 220 223 226 228 229 225 220 219 213
184 185 198 202 203 210 227 237 245 253 240 180 189 190 187 192 193 190 186 188 195 196 206 225 227 214 210 211 214 220 223 217 216 217 218 225 228 227 225 219 212 209
179 180 186 192 193 203 205 211 215 222 225 201 221 224 232 230 218 247 243 223 224 231 224 241 252 243 221 215 216 220 214 216 217 217 216 219 228 223 221 217 214 208
175 178 182 184 191 194 190 191 195 196 189 185 203 199 211 195 200 213 220 218 218 220 218 221 235 235 215 213 214 218 215 214 216 221 226 223 220 225 215 217 214 213
173 176 180 182 183 181 182 183 178 179 187 188 194 191 192 192 197 202 209 213 207 213 215 214 221 228 218 215 217 219 215 211 213 218 225 224 216 217 214 217 215 214